Other Surface Observations
Issued by NWS

Home | Current Version | Previous Version | Text Only | Print | Product List | Glossary On
Versions: 1 2 3 4 5 6 7 8 9 10 11 12 13 14 15 16 17 18 19 20 21 22 23 24 25 26 27 28 29 30 31 32 33 34 35 36 37 38 39 40 41 42 43 44 45 46 47 48 49 50
867
SXUS52 KTAE 091405
OSOTAE
OSOTAE
North Florida/South Alabama/Southwest Georgia Weather Roundup
National Weather Service Tallahassee Florida
900 AM EST TUE FEB 09 2016

Note: "fair" indicates few or no clouds below 12,000 feet with no
significant weather and/or obstructions to visibility.

!FLZ017-115-028-034-025-091500
...North Florida...

CITY           SKY/WX    TMP DP  RH WIND       PRES   REMARKS
TALLAHASSEE    SUNNY     44  22  41 W12       30.04R WCI  38
APALACHICOLA   SUNNY     46  24  42 NW8       30.06R WCI  42
PERRY          SUNNY     46  18  32 W15G22    30.05S WCI  39
CROSS CITY       N/A     49  22  34 W16G26    30.05R WCI  43
JACKSONVILLE   SUNNY     45  22  40 W17G29    29.98F WCI  38
$$

!FLZ112-006-005-002-011-091500
...Florida Panhandle...

CITY           SKY/WX    TMP DP  RH WIND       PRES   REMARKS
MARIANNA       SUNNY     41  23  48 W14       30.04R WCI  33
BONIFAY        FAIR      41  23  48 VRB6      30.06R WCI  37
PANAMA CITY NW FAIR      44  23  43 W12       30.05S WCI  38
TYNDALL AFB    SUNNY     47  24  41 NW15      30.05S WCI  40
TYND DRONE APT NOT AVBL
DE FUNIAK SPR  FAIR      38  22  52 W6        30.05S WCI  33
EGLIN AFB      MOSUNNY   41  24  49 W10       30.05S WCI  35
DESTIN         SUNNY     47  25  42 VRB6      30.07S WCI  44
HURLBURT       MOSUNNY   44  21  40 W7        30.05F WCI  40
CRESTVIEW      SUNNY     40  22  48 W9        30.07S WCI  34
PENSACOLA      MOSUNNY   43  24  47 W12       30.07S WCI  37
$$

!ALZ063-066-091500
...South Alabama...

CITY           SKY/WX    TMP DP  RH WIND       PRES   REMARKS
DOTHAN         MOSUNNY   37  22  54 W14       30.05R WCI  28
OZARK CAIRNS   MOSUNNY   37  23  55 W12       30.02R WCI  30
FT RUCKER HELI MOSUNNY   38  22  52 W9        30.02R WCI  31
RUCKER HELI 3  FAIR      37  23  56 W8G17     30.03R WCI  31
RUCKER HELI 2  NOT AVBL
FLORALA APT    MOSUNNY   38  22  52 VRB3      30.05
ANDALUSIA      MOSUNNY   41  21  44 NW12      30.03R WCI  34
TROY           MOSUNNY   37  22  54 W9        30.01R WCI  30
EUFALA         FAIR      39  23  52 VRB5      29.97R WCI  36
MOBILE         SUNNY     38  21  50 W10G18    30.11R WCI  31
$$

!GAZ120>161-091500
...Southwest and South Central Georgia...

CITY           SKY/WX    TMP DP  RH WIND       PRES   REMARKS
THOMASVILLE    FAIR      41  27  56 W10       30.02R WCI  35
BAINBRIDGE     NOT AVBL
MOODY AFB      SUNNY     42  22  45 W17       29.96F WCI  34
VALDOSTA       SUNNY     43  23  45 VRB5      29.99S WCI  40
MOULTRIE       MOSUNNY   41  25  52 W13G18    29.99S WCI  34
BLAKELY        MOSUNNY   41  28  60 W6G17     30.02R WCI  37
ALBANY         MOSUNNY   40  23  50 W12       30.01R WCI  33
TIFTON         NOT AVBL
FITZGERALD     PTSUNNY   39  24  54 W10G16    29.97S WCI  33
CORDELE        CLOUDY    40  25  54 W13G18    29.95S WCI  33
AMERICUS       CLOUDY    37  23  56 W13G18    29.95S WCI  29
HOMERVILLE     FAIR      43  30  61 W12       29.97F WCI  37
$$

!GMZ750-755-770-775-091500
...Coastal and Buoy Obs...

STATION/POSITION TIME  TEMP    WIND        PRES    VSBY  WAVE
                       AIR SEA DIR/SP/G                  HT/PER
                 (UTC) (F)     (DEG/KT/KT) (MB)    (MI)  (FT/S)
KEATON BEACH     1300   46     300/ 25/ 29 1017.2R
CEDAR KEY        1300   49     310/ 16/ 22 1017.6R
C TOWER          NOT AVBL
APALACHICOLA BUO 1350   57 67  290/ 23/ 29 1017.2R        11/10
PANAMA CITY BUOY 1250   56 70  300/ 23/ 31 1017.8         12/ 9
MOBILE BUOY      NOT AVBL
ORANGE BCH AL BU 1350   49 63  300/ 25/ 31 1017.9S         5/ 5
$$




USA.gov is the U.S. government's official web portal to all federal, state and local government web resources and services.